sat.trackr.live / text

‹ back to catalog

STARLINK-32700

NORAD 62311 · 2024-239L

PAYLOAD ACTIVE UNKNOWN

§ Identity

Operator
Country
US
Launch date
2024-12-13
Launch site
AFWTR
Launch vehicle
Mass (kg)
RCS (m²)

Purposes: comms

External: N2YO · Heavens-Above · Gunter

§ Orbital elements

Epoch: 2026-09-21T19:55:39.571104Z

Period
93.85 min
Inclination
53.1619°
Eccentricity
0.0001104
Mean motion
15.34378541 rev/d
Perigee alt
462.0 km
Apogee alt
463.5 km
Semi-major
6,840.9 km
B*
1.2664e-5
RAAN
347.2709°
Arg perigee
107.3619°
Mean anomaly
252.7505°
Rev number
9,962

§ Raw data

STARLINK-327001 62311U 24239L   26264.83031911  .00000052  00000+0  12664-4 0  99982 62311  53.1619 347.2709 0001104 107.3619 252.7505 15.34378541 99628

JSON: /api/v1/satellites/62311 · /tle

For live sub-satellite position, see the globe view (requires WebGL).

§ Visibility from observer

Set your observer location to see the next 7 days of passes ≥ 10°. The values pass through the URL so the page stays shareable.

No JS? Fill the form by hand. The geolocation button needs JavaScript.